Location: Unspecified
(31.5185°N, 0.0000°E)
Time: 03:30:05
(UTC+00:00)

Transit 2A - Visible Passes

Search period start: 04 April 2026 00:00
Search period end: 14 April 2026 00:00
Orbit: 591 x 953 km, 66.7° (Epoch: 29 March)

Date Brightness Start Highest point End Pass type
(mag) Time Alt. Az. Time Alt. Az. Time Alt. Az.
4 Apr 9.0 01:30:35 14° NNE 01:30:35 14° NNE 01:31:20 10° NNE visible
4 Apr 8.7 03:10:54 11° NNW 03:10:54 11° NNW 03:11:24 10° NNW visible
5 Apr 8.7 02:35:23 13° NNW 02:35:23 13° NNW 02:36:25 10° N visible
6 Apr 8.8 01:59:49 14° N 01:59:49 14° N 02:00:45 10° N visible
7 Apr 9.0 01:24:14 13° N 01:24:14 13° N 01:24:48 10° N visible
8 Apr 9.2 00:48:36 10° NNE 00:48:36 10° NNE 00:48:39 10° NNE visible
10 Apr 9.1 01:17:31 11° N 01:17:31 11° N 01:17:41 10° N visible
11 Apr 9.2 00:41:46 11° N 00:41:46 11° N 00:41:54 10° N visible
